#timestamp,LO_Frequency,Hit,StdDev 
1570802415.2,286047000.7,N
1570802435.0,286047001.9,N
1570802435.9,286047001.9,N
1570802455.8,286046998.9,N
1570802475.6,286047002.7,N
1570802495.4,286047004.0,N
1570802515.3,286047000.7,N
1570802535.1,286046998.5,N
1570802555.8,286047001.5,N
1570802575.7,286047002.6,N
1570802595.5,286047001.2,N
1570802615.3,286047000.6,N
1570802635.2,286046998.5,N
1570802655.0,286046999.8,N
1570802655.9,286046999.8,N
1570802675.8,286046998.2,N
1570802695.6,286046998.9,N
1570802715.4,286047000.2,N
1570802735.3,286047001.4,N
1570802755.1,286047000.7,N
1570802775.8,286046999.6,N
1570802795.7,286046997.4,N
1570802815.5,286046999.5,N
1570802835.4,286047001.5,N
1570802855.2,286047001.4,N
1570802875.0,286047001.5,N
1570802875.9,286047001.5,N
1570802895.8,286047003.9,N
1570802915.6,286047004.4,N
1570802935.4,286046999.7,N
1570802955.3,286047000.5,N
1570802975.1,286047000.9,N
1570802995.9,286047001.2,N
1570803015.7,286047001.0,N
1570803035.5,286046999.0,N
1570803055.4,286046996.6,N
1570803075.2,286047001.2,N
1570803095.0,286046998.8,N
1570803095.9,286046998.8,N
1570803115.8,286047000.5,N
1570803135.6,286047002.6,N
1570803155.5,286047001.7,N
1570803175.3,286047000.0,N
1570803195.1,286047001.3,N
1570803215.9,286047003.4,N
1570803235.7,286047005.3,Y
1570803255.5,286047005.8,P
1570803275.4,286047003.6,N
1570803295.2,286047003.0,N
1570803315.1,286047004.2,N
1570803316.0,286047004.2,N
1570803335.8,286046999.9,N
1570803355.6,286047001.8,N
1570803375.5,286047001.0,N
1570803395.3,286047000.7,N
1570803415.1,286047006.6,Y
1570803435.9,286047003.5,P
1570803455.7,286047000.8,N
1570803475.6,286046999.4,N
1570803495.4,286046996.9,N
1570803515.2,286046996.1,N
1570803535.1,286046996.3,N
1570803536.0,286046996.3,N
1570803555.8,286046993.7,N
1570803575.6,286046995.2,N
1570803595.5,286046995.4,N
1570803615.3,286046993.2,N
1570803635.2,286046994.8,N
1570803655.9,286046993.0,N
1570803675.7,286046992.9,N
1570803695.6,286046994.6,N
1570803715.4,286046993.3,N
1570803735.2,286046996.2,N
1570803755.1,286046995.5,N
1570803756.0,286046995.5,N
1570803775.8,286046994.6,N
1570803795.6,286046991.5,N
1570803815.5,286046990.1,Y
1570803835.3,286046997.3,P
1570803855.2,286046997.4,P
1570803875.9,286046995.3,P
1570803895.7,286046991.8,Y
1570803915.6,286046997.0,P
1570803935.4,286046999.4,N
1570803955.2,286046997.5,N
1570803975.1,286047000.2,N
1570803976.0,286047000.2,N
1570803995.8,286046998.2,N
1570804015.7,286046997.6,N
1570804035.5,286046996.9,N
1570804055.3,286046998.3,N
1570804075.2,286047001.0,N
1570804095.0,286047003.6,N
1570804095.9,286047003.6,N
1570804115.7,286047004.2,N
1570804135.6,286047003.5,N
1570804155.4,286047001.6,N
1570804175.3,286047001.2,N
1570804195.1,286047000.8,N
1570804196.0,286047000.8,N
1570804215.8,286047000.7,N
1570804235.7,286046998.9,N
1570804255.5,286047001.1,N
1570804275.3,286046999.9,N
1570804295.2,286047002.1,N
1570804315.0,286047002.3,N
1570804315.9,286047002.3,N
1570804335.8,286046998.6,N
1570804355.6,286047001.9,N
1570804375.4,286047002.6,N
1570804395.3,286047002.0,N
1570804415.1,286046999.1,N
1570804435.8,286047002.8,N
1570804455.7,286047000.4,N
1570804475.5,286047000.8,N
1570804495.4,286047001.0,N
1570804515.2,286047002.1,N
1570804535.0,286046998.6,N
1570804535.9,286046998.6,N
1570804555.8,286046998.6,N
1570804575.6,286046998.3,N
1570804595.4,286046995.2,N
1570804615.3,286046995.2,N
1570804635.1,286046996.0,N
1570804655.9,286046996.3,N
1570804675.7,286046995.8,N
1570804695.5,286046995.4,N
1570804715.4,286046998.7,N
1570804735.2,286046997.9,N
1570804755.0,286046995.6,N
1570804755.9,286046995.6,N
1570804775.8,286046999.0,N
1570804795.6,286046994.3,N
1570804815.5,286046992.6,N
1570804835.3,286046992.1,N
1570804855.1,286046994.1,N
1570804875.9,286046996.1,N
1570804895.7,286046999.3,N
1570804915.5,286046998.0,N
1570804935.4,286046995.9,N
1570804955.2,286046994.8,N
1570804975.0,286046994.7,N
1570804975.9,286046994.7,N
1570804995.8,286046993.3,N
1570805015.6,286046999.2,N
1570805035.5,286046997.6,N
1570805055.3,286046992.8,Y
1570805075.1,286046995.1,P
1570805095.9,286046995.5,P
1570805115.7,286047000.5,N
1570805135.6,286046997.1,N
1570805155.4,286046999.3,N
1570805175.2,286047001.1,N
1570805195.1,286046996.9,N
1570805196.0,286046996.9,N
1570805215.8,286047000.3,N
1570805235.6,286046995.0,N
1570805255.5,286047000.9,N
1570805275.3,286047000.9,N
1570805295.2,286046993.3,N
1570805315.9,286046995.6,N
1570805335.7,286046996.5,N
1570805355.6,286047002.1,N
1570805375.4,286046999.6,N
1570805395.2,286046998.1,N
1570805415.1,286047002.1,N
1570805416.0,286047002.1,N
1570805435.8,286046995.7,N
1570805455.7,286046996.3,N
1570805475.5,286046995.1,N
1570805495.3,286046997.9,N
1570805515.2,286046995.1,N
1570805535.0,286046993.4,N
1570805535.9,286046993.4,N
1570805555.7,286046993.5,N
1570805575.6,286046996.0,N
1570805595.4,286046996.2,N
1570805615.3,286046999.6,N
1570805635.1,286046995.8,N
1570805636.0,286046995.8,N
1570805655.8,286046997.0,N
1570805675.7,286046997.4,N
1570805695.5,286046992.9,N
1570805715.3,286046992.0,N
1570805735.2,286046990.2,Y
1570805755.0,286046996.4,P
1570805755.9,286046996.4,P
1570805775.8,286046995.8,P
1570805795.6,286046993.8,Y
1570805815.4,286046996.7,P
1570805835.3,286046999.2,P
1570805855.1,286046998.3,N
1570805875.9,286047001.7,N
1570805895.7,286047003.7,N
1570805915.5,286047002.8,N
1570805935.4,286047002.3,N
1570805955.2,286047001.3,N
1570805975.0,286047001.9,N
1570805975.9,286047001.9,N
1570805995.8,286047000.6,N
